N119MG KJAX-KFLL

Flight info

Callsign N119MG
Flight time 1h 54m
Altitude 9000
Route FOXAM T208 VALKA/N0183F080 T345 AIRBT/N0182F070 T345 MARKT
Aircraft S22T/L-SDGRY/S

Departure

Time 2026-05-03 22:27
Airport Jacksonville International Airport (KJAX)

Arrival

Time 2026-05-04 00:22
Airport Fort Lauderdale Hollywood International Airport (KFLL)
Time Latitude Longitude Altitude Speed Heading
2026-05-03 22:10 30.49751 -81.68211 30 ft 0 kts 71°
2026-05-03 22:20 30.49753 -81.68202 30 ft 4 kts 79°
2026-05-03 22:21 30.49768 -81.68178 30 ft 12 kts 54°
2026-05-03 22:21 30.49808 -81.68050 31 ft 16 kts 69°
2026-05-03 22:21 30.49856 -81.67940 31 ft 22 kts 68°
2026-05-03 22:21 30.49922 -81.67956 31 ft 11 kts 192°
2026-05-03 22:22 30.49963 -81.67953 32 ft 22 kts 315°
2026-05-03 22:22 30.49974 -81.68033 33 ft 1 kts 234°
2026-05-03 22:22 30.50002 -81.68052 34 ft 17 kts 326°
2026-05-03 22:22 30.49979 -81.68249 33 ft 32 kts 250°
2026-05-03 22:23 30.49902 -81.68502 32 ft 34 kts 248°
2026-05-03 22:23 30.49864 -81.68620 33 ft 1 kts 239°
2026-05-03 22:23 30.49860 -81.68628 33 ft 6 kts 246°
2026-05-03 22:23 30.49807 -81.68816 34 ft 35 kts 250°
2026-05-03 22:24 30.49731 -81.69074 35 ft 25 kts 248°
2026-05-03 22:24 30.49666 -81.69275 38 ft 28 kts 250°
2026-05-03 22:24 30.49598 -81.69502 35 ft 31 kts 250°
2026-05-03 22:24 30.49517 -81.69750 31 ft 31 kts 250°
2026-05-03 22:25 30.49496 -81.69927 29 ft 18 kts 315°
2026-05-03 22:25 30.49525 -81.69945 29 ft 0 kts 346°
2026-05-03 22:26 30.49556 -81.69956 29 ft 9 kts 340°
2026-05-03 22:26 30.49625 -81.69964 29 ft 10 kts 39°
2026-05-03 22:26 30.49657 -81.69882 31 ft 15 kts 69°
2026-05-03 22:26 30.49744 -81.69598 32 ft 61 kts 70°
2026-05-03 22:27 30.49923 -81.69036 98 ft 81 kts 73°
2026-05-03 22:27 30.50101 -81.68413 256 ft 83 kts 73°
2026-05-03 22:27 30.50307 -81.67741 421 ft 90 kts 70°
2026-05-03 22:27 30.50530 -81.67065 659 ft 89 kts 72°
2026-05-03 22:28 30.50675 -81.66350 859 ft 89 kts 83°
2026-05-03 22:28 30.50707 -81.65628 1056 ft 96 kts 82°
2026-05-03 22:28 30.50757 -81.64891 1385 ft 86 kts 83°
2026-05-03 22:28 30.50836 -81.64165 1597 ft 91 kts 75°
2026-05-03 22:29 30.51036 -81.63446 1831 ft 93 kts 69°
2026-05-03 22:29 30.51273 -81.62787 2258 ft 87 kts 63°
2026-05-03 22:29 30.51577 -81.62141 2483 ft 93 kts 60°
2026-05-03 22:29 30.51885 -81.61499 2799 ft 96 kts 63°
2026-05-03 22:30 30.52181 -81.60814 3156 ft 88 kts 65°
2026-05-03 22:30 30.52446 -81.60130 3431 ft 100 kts 66°
2026-05-03 22:30 30.52726 -81.59416 3883 ft 101 kts 66°
2026-05-03 22:30 30.53051 -81.58659 4269 ft 108 kts 63°
2026-05-03 22:31 30.53364 -81.57848 4629 ft 115 kts 68°
2026-05-03 22:31 30.53653 -81.56984 5069 ft 114 kts 68°
2026-05-03 22:31 30.53897 -81.56122 5535 ft 114 kts 68°
2026-05-03 22:31 30.54150 -81.55213 5923 ft 119 kts 68°
2026-05-03 22:32 30.54418 -81.54318 6362 ft 121 kts 66°
2026-05-03 22:32 30.54706 -81.53376 6767 ft 122 kts 64°
2026-05-03 22:32 30.55002 -81.52447 7164 ft 127 kts 66°
2026-05-03 22:32 30.55319 -81.51476 7542 ft 129 kts 63°
2026-05-03 22:33 30.55653 -81.50534 7997 ft 126 kts 64°
2026-05-03 22:33 30.56021 -81.49490 8051 ft 154 kts 64°
2026-05-03 22:33 30.56438 -81.48259 8013 ft 174 kts 67°
2026-05-03 22:33 30.56835 -81.46922 8052 ft 181 kts 68°
2026-05-03 22:34 30.57264 -81.45520 8045 ft 187 kts 68°
2026-05-03 22:34 30.57723 -81.44091 8039 ft 191 kts 67°
2026-05-03 22:34 30.58185 -81.42641 8038 ft 193 kts 68°
2026-05-03 22:34 30.58648 -81.41179 8037 ft 194 kts 68°
2026-05-03 22:35 30.59110 -81.39708 8036 ft 194 kts 68°
2026-05-03 22:35 30.59571 -81.38234 8036 ft 194 kts 67°
2026-05-03 22:35 30.60032 -81.36764 8037 ft 195 kts 68°
2026-05-03 22:35 30.60495 -81.35286 8035 ft 195 kts 67°
2026-05-03 22:36 30.60959 -81.33809 8036 ft 195 kts 68°
2026-05-03 22:36 30.61419 -81.32353 8035 ft 195 kts 68°
2026-05-03 22:36 30.61882 -81.30873 8035 ft 195 kts 68°
2026-05-03 22:36 30.62345 -81.29395 8035 ft 195 kts 68°
2026-05-03 22:37 30.62807 -81.27920 8031 ft 195 kts 68°
2026-05-03 22:37 30.63280 -81.26440 8022 ft 195 kts 67°
2026-05-03 22:37 30.63634 -81.24926 8009 ft 197 kts 88°
2026-05-03 22:37 30.63220 -81.23446 8014 ft 194 kts 129°
2026-05-03 22:38 30.62137 -81.22610 8010 ft 187 kts 170°
2026-05-03 22:38 30.60896 -81.22725 8015 ft 178 kts 201°
2026-05-03 22:38 30.59746 -81.23069 8020 ft 180 kts 191°
2026-05-03 22:38 30.58615 -81.23087 8025 ft 183 kts 181°
2026-05-03 22:39 30.57345 -81.22982 8029 ft 183 kts 180°
2026-05-03 22:39 30.56076 -81.22884 8029 ft 183 kts 180°
2026-05-03 22:39 30.54807 -81.22795 8030 ft 183 kts 181°
2026-05-03 22:39 30.53545 -81.22710 8029 ft 181 kts 181°
2026-05-03 22:40 30.52293 -81.22624 8022 ft 180 kts 181°
2026-05-03 22:40 30.51043 -81.22538 8020 ft 179 kts 181°
2026-05-03 22:40 30.49800 -81.22452 8019 ft 179 kts 181°
2026-05-03 22:40 30.48558 -81.22367 8018 ft 179 kts 181°
2026-05-03 22:41 30.47318 -81.22280 8016 ft 178 kts 181°
2026-05-03 22:41 30.46095 -81.22197 8016 ft 178 kts 181°
2026-05-03 22:41 30.44857 -81.22110 8016 ft 178 kts 181°
2026-05-03 22:41 30.43618 -81.22026 8015 ft 178 kts 181°
2026-05-03 22:42 30.42381 -81.21940 8014 ft 178 kts 181°
2026-05-03 22:42 30.41143 -81.21856 8013 ft 178 kts 181°
2026-05-03 22:42 30.39908 -81.21770 8013 ft 178 kts 180°
2026-05-03 22:42 30.38669 -81.21685 8014 ft 178 kts 181°
2026-05-03 22:43 30.37431 -81.21599 8014 ft 178 kts 181°
2026-05-03 22:43 30.36193 -81.21514 8014 ft 179 kts 180°
2026-05-03 22:43 30.34970 -81.21431 8013 ft 179 kts 181°
2026-05-03 22:43 30.33730 -81.21345 8014 ft 179 kts 181°
2026-05-03 22:44 30.32489 -81.21260 8014 ft 179 kts 181°
2026-05-03 22:44 30.31247 -81.21174 8013 ft 179 kts 181°
2026-05-03 22:44 30.30007 -81.21090 8013 ft 179 kts 181°
2026-05-03 22:44 30.28768 -81.21003 8014 ft 179 kts 181°
2026-05-03 22:45 30.27524 -81.20922 8013 ft 179 kts 181°
2026-05-03 22:45 30.26285 -81.20836 8013 ft 179 kts 181°
2026-05-03 22:45 30.25043 -81.20744 8012 ft 179 kts 180°
2026-05-03 22:45 30.23802 -81.20658 8011 ft 179 kts 181°
2026-05-03 22:46 30.22561 -81.20574 8012 ft 179 kts 181°
2026-05-03 22:46 30.21321 -81.20491 8009 ft 178 kts 181°
2026-05-03 22:46 30.20081 -81.20406 8010 ft 178 kts 181°
2026-05-03 22:46 30.18859 -81.20323 8010 ft 178 kts 181°
2026-05-03 22:47 30.17618 -81.20238 8008 ft 179 kts 181°
2026-05-03 22:47 30.16379 -81.20154 8008 ft 178 kts 181°
2026-05-03 22:47 30.15141 -81.20071 8009 ft 178 kts 181°
2026-05-03 22:47 30.13900 -81.19987 8017 ft 178 kts 181°
2026-05-03 22:48 30.12665 -81.19903 8018 ft 178 kts 181°
2026-05-03 22:48 30.11425 -81.19816 8017 ft 178 kts 181°
2026-05-03 22:48 30.10188 -81.19731 8009 ft 179 kts 181°
2026-05-03 22:48 30.08949 -81.19646 8018 ft 178 kts 181°
2026-05-03 22:49 30.07727 -81.19562 8018 ft 179 kts 181°
2026-05-03 22:49 30.06486 -81.19477 8018 ft 179 kts 181°
2026-05-03 22:49 30.05244 -81.19392 8017 ft 179 kts 181°
2026-05-03 22:49 30.04005 -81.19308 8018 ft 179 kts 181°
2026-05-03 22:50 30.02763 -81.19222 8018 ft 179 kts 181°
2026-05-03 22:50 30.01522 -81.19138 8019 ft 179 kts 181°
2026-05-03 22:50 30.00280 -81.19049 8019 ft 179 kts 181°
2026-05-03 22:50 29.99039 -81.18966 8019 ft 179 kts 181°
2026-05-03 22:51 29.97795 -81.18883 8021 ft 179 kts 181°
2026-05-03 22:51 29.96552 -81.18799 8021 ft 179 kts 181°
2026-05-03 22:51 29.95306 -81.18711 8022 ft 179 kts 181°
2026-05-03 22:51 29.94063 -81.18626 8021 ft 179 kts 181°
2026-05-03 22:52 29.92819 -81.18537 8019 ft 179 kts 181°
2026-05-03 22:52 29.91593 -81.18455 8019 ft 179 kts 181°
2026-05-03 22:52 29.90351 -81.18377 8018 ft 179 kts 181°
2026-05-03 22:52 29.89110 -81.18292 8018 ft 179 kts 181°
2026-05-03 22:53 29.87865 -81.18207 8019 ft 179 kts 181°
2026-05-03 22:53 29.86625 -81.18122 8018 ft 179 kts 181°
2026-05-03 22:53 29.85382 -81.18037 8018 ft 179 kts 181°
2026-05-03 22:53 29.84142 -81.17953 8018 ft 179 kts 181°
2026-05-03 22:54 29.82898 -81.17868 8017 ft 179 kts 181°
2026-05-03 22:54 29.81661 -81.17784 8013 ft 178 kts 181°
2026-05-03 22:54 29.80425 -81.17700 8016 ft 178 kts 182°
2026-05-03 22:54 29.79184 -81.17615 8017 ft 178 kts 182°
2026-05-03 22:55 29.77966 -81.17532 8016 ft 178 kts 182°
2026-05-03 22:55 29.76728 -81.17448 8014 ft 178 kts 181°
2026-05-03 22:55 29.75486 -81.17363 8015 ft 179 kts 182°
2026-05-03 22:55 29.74247 -81.17280 8014 ft 179 kts 181°
2026-05-03 22:56 29.73003 -81.17194 8016 ft 179 kts 182°
2026-05-03 22:56 29.71761 -81.17112 8015 ft 179 kts 182°
2026-05-03 22:56 29.70514 -81.17026 8015 ft 179 kts 182°
2026-05-03 22:56 29.69271 -81.16942 8011 ft 179 kts 182°
2026-05-03 22:57 29.68026 -81.16857 8014 ft 179 kts 182°
2026-05-03 22:57 29.66780 -81.16773 8014 ft 179 kts 181°
2026-05-03 22:57 29.65530 -81.16687 8014 ft 179 kts 182°
2026-05-03 22:57 29.64288 -81.16603 8012 ft 179 kts 181°
2026-05-03 22:58 29.63040 -81.16519 8011 ft 180 kts 182°
2026-05-03 22:58 29.61792 -81.16434 8010 ft 179 kts 182°
2026-05-03 22:58 29.60565 -81.16351 8010 ft 179 kts 182°
2026-05-03 22:58 29.59320 -81.16266 8008 ft 179 kts 181°
2026-05-03 22:59 29.58078 -81.16182 8009 ft 179 kts 182°
2026-05-03 22:59 29.56838 -81.16097 8010 ft 179 kts 182°
2026-05-03 22:59 29.55598 -81.15980 8010 ft 180 kts 176°
2026-05-03 22:59 29.54359 -81.15766 8009 ft 180 kts 177°
2026-05-03 23:00 29.53123 -81.15561 7999 ft 179 kts 177°
2026-05-03 23:00 29.51898 -81.15361 8011 ft 178 kts 178°
2026-05-03 23:00 29.50675 -81.15162 8009 ft 178 kts 178°
2026-05-03 23:00 29.49446 -81.14962 8010 ft 179 kts 177°
2026-05-03 23:01 29.48228 -81.14763 8012 ft 178 kts 177°
2026-05-03 23:01 29.46998 -81.14561 8014 ft 179 kts 177°
2026-05-03 23:01 29.45770 -81.14359 8014 ft 179 kts 177°
2026-05-03 23:01 29.44538 -81.14158 8013 ft 179 kts 177°
2026-05-03 23:02 29.43308 -81.13956 8014 ft 179 kts 177°
2026-05-03 23:02 29.42076 -81.13755 8014 ft 179 kts 177°
2026-05-03 23:02 29.40842 -81.13553 8011 ft 179 kts 177°
2026-05-03 23:02 29.39608 -81.13352 8012 ft 179 kts 177°
2026-05-03 23:03 29.38378 -81.13150 8003 ft 179 kts 177°
2026-05-03 23:03 29.37146 -81.12948 8005 ft 179 kts 177°
2026-05-03 23:03 29.35915 -81.12748 8005 ft 179 kts 177°
2026-05-03 23:03 29.34699 -81.12549 8003 ft 179 kts 177°
2026-05-03 23:04 29.33466 -81.12348 8004 ft 179 kts 177°
2026-05-03 23:04 29.32246 -81.12036 8002 ft 183 kts 165°
2026-05-03 23:04 29.31055 -81.11532 8001 ft 182 kts 165°
2026-05-03 23:04 29.29860 -81.11054 8006 ft 182 kts 166°
2026-05-03 23:05 29.28658 -81.10573 8004 ft 183 kts 166°
2026-05-03 23:05 29.27457 -81.10088 8006 ft 183 kts 165°
2026-05-03 23:05 29.26257 -81.09606 8003 ft 183 kts 165°
2026-05-03 23:05 29.25060 -81.09124 8004 ft 183 kts 166°
2026-05-03 23:06 29.23864 -81.08644 7984 ft 182 kts 166°
2026-05-03 23:06 29.22686 -81.08169 7994 ft 182 kts 166°
2026-05-03 23:06 29.21476 -81.07683 7991 ft 181 kts 166°
2026-05-03 23:06 29.20305 -81.07211 7985 ft 180 kts 166°
2026-05-03 23:07 29.19119 -81.06736 7990 ft 181 kts 168°
2026-05-03 23:07 29.17928 -81.06282 7991 ft 181 kts 165°
2026-05-03 23:07 29.16749 -81.05782 7988 ft 180 kts 165°
2026-05-03 23:07 29.15569 -81.05304 7992 ft 180 kts 166°
2026-05-03 23:08 29.14379 -81.04830 7996 ft 182 kts 166°
2026-05-03 23:08 29.13179 -81.04351 8002 ft 184 kts 166°
2026-05-03 23:08 29.11971 -81.03865 8005 ft 185 kts 165°
2026-05-03 23:08 29.10766 -81.03351 8007 ft 184 kts 165°
2026-05-03 23:09 29.09574 -81.02898 8003 ft 183 kts 167°
2026-05-03 23:09 29.08374 -81.02433 8000 ft 182 kts 166°
2026-05-03 23:09 29.07178 -81.01950 7998 ft 182 kts 166°
2026-05-03 23:09 29.05981 -81.01467 7998 ft 182 kts 165°
2026-05-03 23:10 29.04790 -81.00987 7997 ft 182 kts 165°
2026-05-03 23:10 29.03594 -81.00507 7998 ft 183 kts 166°
2026-05-03 23:10 29.02390 -81.00026 8000 ft 183 kts 166°
2026-05-03 23:10 29.01195 -80.99546 7998 ft 182 kts 166°
2026-05-03 23:11 29.00000 -80.99068 7998 ft 182 kts 165°
2026-05-03 23:11 28.98802 -80.98588 7998 ft 182 kts 165°
2026-05-03 23:11 28.97620 -80.98114 8000 ft 182 kts 165°
2026-05-03 23:11 28.96424 -80.97635 7999 ft 182 kts 166°
2026-05-03 23:12 28.95227 -80.97155 7997 ft 182 kts 165°
2026-05-03 23:12 28.94034 -80.96677 8001 ft 181 kts 165°
2026-05-03 23:12 28.92840 -80.96200 8002 ft 182 kts 165°
2026-05-03 23:12 28.91638 -80.95718 8004 ft 185 kts 166°
2026-05-03 23:13 28.90420 -80.95243 8008 ft 186 kts 165°
2026-05-03 23:13 28.89194 -80.94759 8012 ft 187 kts 166°
2026-05-03 23:13 28.87960 -80.94249 8013 ft 190 kts 164°
2026-05-03 23:13 28.86715 -80.93741 8011 ft 189 kts 166°
2026-05-03 23:14 28.85476 -80.93255 8010 ft 189 kts 166°
2026-05-03 23:14 28.84236 -80.92752 8006 ft 188 kts 166°
2026-05-03 23:14 28.83010 -80.92273 8002 ft 185 kts 166°
2026-05-03 23:14 28.81797 -80.91796 7991 ft 184 kts 165°
2026-05-03 23:15 28.80590 -80.91315 7978 ft 183 kts 166°
2026-05-03 23:15 28.79393 -80.90837 7973 ft 182 kts 165°
2026-05-03 23:15 28.78194 -80.90360 7975 ft 182 kts 166°
2026-05-03 23:15 28.76998 -80.89887 7976 ft 182 kts 166°
2026-05-03 23:16 28.75822 -80.89424 7973 ft 180 kts 166°
2026-05-03 23:16 28.74643 -80.88954 7971 ft 179 kts 166°
2026-05-03 23:16 28.73470 -80.88485 7972 ft 179 kts 166°
2026-05-03 23:16 28.72296 -80.88017 7969 ft 179 kts 166°
2026-05-03 23:17 28.71117 -80.87550 7970 ft 179 kts 166°
2026-05-03 23:17 28.69939 -80.87084 7969 ft 179 kts 166°
2026-05-03 23:17 28.68761 -80.86618 7968 ft 179 kts 166°
2026-05-03 23:17 28.67585 -80.86146 7967 ft 179 kts 165°
2026-05-03 23:18 28.66410 -80.85675 7965 ft 179 kts 165°
2026-05-03 23:18 28.65234 -80.85205 7965 ft 179 kts 166°
2026-05-03 23:18 28.64059 -80.84734 7990 ft 178 kts 166°
2026-05-03 23:18 28.62888 -80.84268 7989 ft 179 kts 165°
2026-05-03 23:19 28.61729 -80.83802 7990 ft 179 kts 166°
2026-05-03 23:19 28.60555 -80.83334 7990 ft 179 kts 166°
2026-05-03 23:19 28.59384 -80.82867 7990 ft 179 kts 166°
2026-05-03 23:19 28.58214 -80.82398 7990 ft 178 kts 166°
2026-05-03 23:20 28.57039 -80.81930 7991 ft 179 kts 166°
2026-05-03 23:20 28.55863 -80.81460 7992 ft 179 kts 166°
2026-05-03 23:20 28.54688 -80.80991 7993 ft 179 kts 166°
2026-05-03 23:20 28.53512 -80.80522 7993 ft 179 kts 165°
2026-05-03 23:21 28.52329 -80.80050 7994 ft 180 kts 165°
2026-05-03 23:21 28.51162 -80.79585 7993 ft 180 kts 166°
2026-05-03 23:21 28.49980 -80.79116 7992 ft 180 kts 166°
2026-05-03 23:21 28.48802 -80.78648 7992 ft 179 kts 166°
2026-05-03 23:22 28.46445 -80.77714 7992 ft 179 kts 165°
2026-05-03 23:22 28.45265 -80.77246 7991 ft 180 kts 166°
2026-05-03 23:22 28.44088 -80.76779 7992 ft 179 kts 166°
2026-05-03 23:23 28.42907 -80.76311 7993 ft 179 kts 166°
2026-05-03 23:23 28.41731 -80.75850 7991 ft 179 kts 166°
2026-05-03 23:23 28.40559 -80.75393 7989 ft 178 kts 166°
2026-05-03 23:23 28.39389 -80.74932 7987 ft 178 kts 166°
2026-05-03 23:24 28.38230 -80.74479 7986 ft 178 kts 166°
2026-05-03 23:24 28.37060 -80.74018 7983 ft 178 kts 166°
2026-05-03 23:24 28.35891 -80.73558 7981 ft 178 kts 166°
2026-05-03 23:24 28.34721 -80.73102 7969 ft 178 kts 166°
2026-05-03 23:25 28.33564 -80.72647 7980 ft 176 kts 166°
2026-05-03 23:25 28.32403 -80.72191 7979 ft 176 kts 166°
2026-05-03 23:25 28.31241 -80.71737 7978 ft 177 kts 166°
2026-05-03 23:25 28.30077 -80.71281 7975 ft 177 kts 166°
2026-05-03 23:26 28.28916 -80.70826 7975 ft 176 kts 166°
2026-05-03 23:26 28.27757 -80.70372 7974 ft 177 kts 166°
2026-05-03 23:26 28.26591 -80.69933 7974 ft 176 kts 167°
2026-05-03 23:26 28.25453 -80.69464 7974 ft 177 kts 165°
2026-05-03 23:27 28.24290 -80.69009 7971 ft 177 kts 167°
2026-05-03 23:27 28.23118 -80.68572 7972 ft 177 kts 168°
2026-05-03 23:27 28.21944 -80.68152 7972 ft 178 kts 165°
2026-05-03 23:27 28.20789 -80.67647 7972 ft 178 kts 164°
2026-05-03 23:28 28.19630 -80.67178 7973 ft 177 kts 166°
2026-05-03 23:28 28.18462 -80.66725 7971 ft 178 kts 166°
2026-05-03 23:28 28.17289 -80.66272 7971 ft 178 kts 166°
2026-05-03 23:28 28.16518 -80.65974 7973 ft 177 kts 166°
2026-05-03 23:29 28.14967 -80.65417 7975 ft 177 kts 168°
2026-05-03 23:29 28.13805 -80.64955 7977 ft 178 kts 164°
2026-05-03 23:29 28.13039 -80.64625 7977 ft 177 kts 164°
2026-05-03 23:29 28.11483 -80.64000 7973 ft 177 kts 166°
2026-05-03 23:30 28.10710 -80.63701 7970 ft 177 kts 166°
2026-05-03 23:30 28.09555 -80.63220 7971 ft 176 kts 164°
2026-05-03 23:30 28.08402 -80.62760 7968 ft 176 kts 166°
2026-05-03 23:30 28.07228 -80.62387 7969 ft 175 kts 170°
2026-05-03 23:31 28.06052 -80.62008 7967 ft 176 kts 168°
2026-05-03 23:31 28.04499 -80.61472 7961 ft 176 kts 167°
2026-05-03 23:31 28.03711 -80.61199 7964 ft 176 kts 168°
2026-05-03 23:31 28.02164 -80.60657 7965 ft 176 kts 168°
2026-05-03 23:32 28.01370 -80.60386 7964 ft 176 kts 168°
2026-05-03 23:32 28.00197 -80.59993 7962 ft 176 kts 168°
2026-05-03 23:32 27.99229 -80.59661 7962 ft 176 kts 168°
2026-05-03 23:32 27.98397 -80.59376 7967 ft 176 kts 168°
2026-05-03 23:33 27.97223 -80.58974 7969 ft 177 kts 168°
2026-05-03 23:33 27.96041 -80.58571 7967 ft 177 kts 168°
2026-05-03 23:33 27.94859 -80.58167 7967 ft 177 kts 168°
2026-05-03 23:33 27.93681 -80.57764 7966 ft 177 kts 168°
2026-05-03 23:34 27.92502 -80.57366 7963 ft 176 kts 170°
2026-05-03 23:34 27.91308 -80.57283 7963 ft 170 kts 192°
2026-05-03 23:34 27.90164 -80.57567 7964 ft 168 kts 198°
2026-05-03 23:34 27.89037 -80.57859 7963 ft 168 kts 197°
2026-05-03 23:35 27.87892 -80.58152 7964 ft 169 kts 197°
2026-05-03 23:35 27.86745 -80.58447 7962 ft 169 kts 197°
2026-05-03 23:35 27.85598 -80.58744 7962 ft 169 kts 197°
2026-05-03 23:35 27.84451 -80.59040 7962 ft 169 kts 197°
2026-05-03 23:36 27.83305 -80.59335 7961 ft 169 kts 197°
2026-05-03 23:36 27.82157 -80.59632 7961 ft 169 kts 197°
2026-05-03 23:36 27.81007 -80.59928 7960 ft 169 kts 197°
2026-05-03 23:36 27.79858 -80.60224 7960 ft 169 kts 197°
2026-05-03 23:37 27.78709 -80.60521 7962 ft 169 kts 197°
2026-05-03 23:37 27.77562 -80.60816 7962 ft 169 kts 197°
2026-05-03 23:37 27.76413 -80.61113 7961 ft 169 kts 197°
2026-05-03 23:37 27.75268 -80.61407 7962 ft 169 kts 197°
2026-05-03 23:38 27.74121 -80.61703 7959 ft 169 kts 197°
2026-05-03 23:38 27.72989 -80.61994 7962 ft 169 kts 197°
2026-05-03 23:38 27.71847 -80.62288 7962 ft 169 kts 197°
2026-05-03 23:38 27.70695 -80.62585 7959 ft 169 kts 197°
2026-05-03 23:39 27.69546 -80.62881 7962 ft 170 kts 197°
2026-05-03 23:39 27.68396 -80.63177 7961 ft 169 kts 197°
2026-05-03 23:39 27.67247 -80.63473 7962 ft 169 kts 197°
2026-05-03 23:39 27.66100 -80.63768 7961 ft 170 kts 197°
2026-05-03 23:40 27.64948 -80.64064 7959 ft 170 kts 197°
2026-05-03 23:40 27.63813 -80.64357 7959 ft 169 kts 197°
2026-05-03 23:40 27.62662 -80.64653 7959 ft 170 kts 197°
2026-05-03 23:40 27.61511 -80.64948 7960 ft 169 kts 198°
2026-05-03 23:41 27.60361 -80.65245 7959 ft 170 kts 197°
2026-05-03 23:41 27.59209 -80.65538 7958 ft 170 kts 197°
2026-05-03 23:41 27.58056 -80.65833 7958 ft 170 kts 196°
2026-05-03 23:41 27.56901 -80.66117 7957 ft 170 kts 195°
2026-05-03 23:42 27.55744 -80.66410 7957 ft 170 kts 196°
2026-05-03 23:42 27.54588 -80.66707 7956 ft 170 kts 197°
2026-05-03 23:42 27.53432 -80.67007 7957 ft 170 kts 196°
2026-05-03 23:42 27.52292 -80.67300 7957 ft 170 kts 196°
2026-05-03 23:43 27.51138 -80.67598 7950 ft 170 kts 196°
2026-05-03 23:43 27.49980 -80.67894 7951 ft 171 kts 196°
2026-05-03 23:43 27.48825 -80.68189 7952 ft 170 kts 196°
2026-05-03 23:43 27.47668 -80.68487 7951 ft 171 kts 196°
2026-05-03 23:44 27.46513 -80.68782 7952 ft 170 kts 196°
2026-05-03 23:44 27.45355 -80.69080 7951 ft 170 kts 196°
2026-05-03 23:44 27.44200 -80.69375 7952 ft 170 kts 196°
2026-05-03 23:44 27.43023 -80.69566 7957 ft 173 kts 184°
2026-05-03 23:45 27.41822 -80.69563 7950 ft 173 kts 185°
2026-05-03 23:45 27.40640 -80.69604 7949 ft 172 kts 186°
2026-05-03 23:45 27.39439 -80.69630 7950 ft 172 kts 185°
2026-05-03 23:45 27.38239 -80.69648 7949 ft 172 kts 185°
2026-05-03 23:46 27.37039 -80.69665 7949 ft 173 kts 185°
2026-05-03 23:46 27.35840 -80.69683 7948 ft 173 kts 185°
2026-05-03 23:46 27.34640 -80.69701 7948 ft 172 kts 185°
2026-05-03 23:46 27.33437 -80.69720 7948 ft 174 kts 185°
2026-05-03 23:47 27.32213 -80.69737 7951 ft 177 kts 185°
2026-05-03 23:47 27.30994 -80.69757 7956 ft 179 kts 185°
2026-05-03 23:47 27.29744 -80.69778 7957 ft 180 kts 185°
2026-05-03 23:47 27.28491 -80.69797 7960 ft 180 kts 185°
2026-05-03 23:48 27.27233 -80.69817 7960 ft 181 kts 185°
2026-05-03 23:48 27.25976 -80.69840 7962 ft 181 kts 185°
2026-05-03 23:48 27.24719 -80.69859 7961 ft 181 kts 185°
2026-05-03 23:48 27.23456 -80.69878 7960 ft 182 kts 185°
2026-05-03 23:49 27.22190 -80.69898 7959 ft 182 kts 185°
2026-05-03 23:49 27.20924 -80.69918 7960 ft 182 kts 185°
2026-05-03 23:49 27.19657 -80.69939 7959 ft 182 kts 185°
2026-05-03 23:49 27.18404 -80.69958 7960 ft 182 kts 185°
2026-05-03 23:50 27.17137 -80.69979 7961 ft 182 kts 185°
2026-05-03 23:50 27.15869 -80.69998 7952 ft 182 kts 185°
2026-05-03 23:50 27.14600 -80.70019 7951 ft 182 kts 185°
2026-05-03 23:50 27.13329 -80.70039 7951 ft 182 kts 185°
2026-05-03 23:51 27.12067 -80.70063 7951 ft 181 kts 185°
2026-05-03 23:51 27.10806 -80.70081 7954 ft 181 kts 184°
2026-05-03 23:51 27.09546 -80.70098 7951 ft 181 kts 185°
2026-05-03 23:51 27.08299 -80.70119 7949 ft 182 kts 185°
2026-05-03 23:52 27.07033 -80.70139 7948 ft 182 kts 185°
2026-05-03 23:52 27.05773 -80.70157 7949 ft 181 kts 185°
2026-05-03 23:52 27.04510 -80.70179 7947 ft 182 kts 185°
2026-05-03 23:52 27.03248 -80.70199 7947 ft 182 kts 185°
2026-05-03 23:53 27.01983 -80.70219 7947 ft 182 kts 185°
2026-05-03 23:53 27.00717 -80.70240 7947 ft 182 kts 185°
2026-05-03 23:53 26.99448 -80.70259 7947 ft 182 kts 185°
2026-05-03 23:53 26.98179 -80.70281 7947 ft 183 kts 185°
2026-05-03 23:54 26.96908 -80.70299 7946 ft 183 kts 185°
2026-05-03 23:54 26.95654 -80.70320 7946 ft 183 kts 185°
2026-05-03 23:54 26.94382 -80.70340 7946 ft 183 kts 185°
2026-05-03 23:54 26.93112 -80.70360 7946 ft 183 kts 185°
2026-05-03 23:55 26.91838 -80.70381 7940 ft 183 kts 185°
2026-05-03 23:55 26.90563 -80.70400 7940 ft 183 kts 185°
2026-05-03 23:55 26.89294 -80.70421 7940 ft 183 kts 185°
2026-05-03 23:55 26.88021 -80.70441 7940 ft 183 kts 185°
2026-05-03 23:56 26.86754 -80.70461 7940 ft 182 kts 184°
2026-05-03 23:56 26.85483 -80.70481 7938 ft 183 kts 185°
2026-05-03 23:56 26.84209 -80.70501 7936 ft 183 kts 185°
2026-05-03 23:56 26.82953 -80.70521 7938 ft 183 kts 185°
2026-05-03 23:57 26.81680 -80.70541 7938 ft 183 kts 185°
2026-05-03 23:57 26.80405 -80.70562 7934 ft 183 kts 185°
2026-05-03 23:57 26.79131 -80.70581 7935 ft 183 kts 185°
2026-05-03 23:57 26.77857 -80.70523 7934 ft 187 kts 173°
2026-05-03 23:58 26.76611 -80.70106 7939 ft 188 kts 168°
2026-05-03 23:58 26.75354 -80.69710 7936 ft 188 kts 169°
2026-05-03 23:58 26.74099 -80.69314 7936 ft 188 kts 168°
2026-05-03 23:58 26.72844 -80.68913 7936 ft 188 kts 168°
2026-05-03 23:59 26.71588 -80.68509 7940 ft 188 kts 168°
2026-05-03 23:59 26.70345 -80.68111 7937 ft 188 kts 168°
2026-05-03 23:59 26.69071 -80.67701 7937 ft 188 kts 168°
2026-05-03 23:59 26.67828 -80.67303 7934 ft 188 kts 168°
2026-05-04 00:00 26.66568 -80.66900 7935 ft 188 kts 169°
2026-05-04 00:00 26.65307 -80.66499 7934 ft 188 kts 168°
2026-05-04 00:00 26.64051 -80.66092 7934 ft 188 kts 168°
2026-05-04 00:00 26.62793 -80.65690 7934 ft 188 kts 168°
2026-05-04 00:01 26.61533 -80.65286 7933 ft 188 kts 168°
2026-05-04 00:01 26.60271 -80.64883 7935 ft 188 kts 168°
2026-05-04 00:01 26.59010 -80.64480 7934 ft 189 kts 168°
2026-05-04 00:01 26.57765 -80.64082 7933 ft 189 kts 168°
2026-05-04 00:02 26.56488 -80.63673 7933 ft 189 kts 168°
2026-05-04 00:02 26.55242 -80.63274 7929 ft 188 kts 169°
2026-05-04 00:02 26.53983 -80.62872 7929 ft 188 kts 169°
2026-05-04 00:02 26.52723 -80.62470 7928 ft 189 kts 169°
2026-05-04 00:03 26.51459 -80.62066 7928 ft 189 kts 169°
2026-05-04 00:03 26.50192 -80.61661 7928 ft 189 kts 169°
2026-05-04 00:03 26.48926 -80.61257 7928 ft 189 kts 169°
2026-05-04 00:03 26.47661 -80.60853 7928 ft 189 kts 169°
2026-05-04 00:04 26.46393 -80.60450 7927 ft 189 kts 169°
2026-05-04 00:04 26.45123 -80.60049 7928 ft 189 kts 169°
2026-05-04 00:04 26.43859 -80.59640 7927 ft 189 kts 169°
2026-05-04 00:04 26.42596 -80.59212 7925 ft 190 kts 166°
2026-05-04 00:05 26.41356 -80.58694 7925 ft 191 kts 165°
2026-05-04 00:05 26.40132 -80.58177 7925 ft 191 kts 164°
2026-05-04 00:05 26.38889 -80.57651 7925 ft 191 kts 165°
2026-05-04 00:05 26.37647 -80.57124 7928 ft 191 kts 165°
2026-05-04 00:06 26.36425 -80.56604 8012 ft 187 kts 164°
2026-05-04 00:06 26.35203 -80.56084 8011 ft 189 kts 165°
2026-05-04 00:06 26.33975 -80.55563 8011 ft 190 kts 165°
2026-05-04 00:06 26.32740 -80.55038 8012 ft 190 kts 164°
2026-05-04 00:07 26.31501 -80.54514 8014 ft 191 kts 165°
2026-05-04 00:07 26.30276 -80.53994 8014 ft 191 kts 165°
2026-05-04 00:07 26.29037 -80.53466 8011 ft 190 kts 165°
2026-05-04 00:07 26.27807 -80.52941 8011 ft 189 kts 165°
2026-05-04 00:08 26.26577 -80.52417 8011 ft 189 kts 165°
2026-05-04 00:08 26.25349 -80.51892 8011 ft 189 kts 165°
2026-05-04 00:08 26.24121 -80.51365 8012 ft 189 kts 165°
2026-05-04 00:08 26.22897 -80.50833 8011 ft 189 kts 164°
2026-05-04 00:09 26.21666 -80.50300 8011 ft 190 kts 165°
2026-05-04 00:09 26.20436 -80.49765 8011 ft 190 kts 165°
2026-05-04 00:09 26.19220 -80.49237 8010 ft 178 kts 165°
2026-05-04 00:09 26.18113 -80.48750 7650 ft 172 kts 165°
2026-05-04 00:10 26.17000 -80.48264 7212 ft 171 kts 165°
2026-05-04 00:10 26.15912 -80.47818 6804 ft 167 kts 170°
2026-05-04 00:10 26.14791 -80.47506 6386 ft 165 kts 173°
2026-05-04 00:10 26.13679 -80.47213 5948 ft 164 kts 173°
2026-05-04 00:11 26.12569 -80.46930 5518 ft 163 kts 173°
2026-05-04 00:11 26.11481 -80.46970 5085 ft 155 kts 208°
2026-05-04 00:11 26.10890 -80.47796 5008 ft 129 kts 261°
2026-05-04 00:11 26.11118 -80.48681 5003 ft 119 kts 295°
2026-05-04 00:12 26.11512 -80.49529 5013 ft 132 kts 292°
2026-05-04 00:12 26.11952 -80.50502 5028 ft 147 kts 293°
2026-05-04 00:12 26.12378 -80.51577 5026 ft 155 kts 283°
2026-05-04 00:12 26.12231 -80.52733 5025 ft 158 kts 238°
2026-05-04 00:13 26.11304 -80.53394 5025 ft 168 kts 193°
2026-05-04 00:13 26.10139 -80.53411 5024 ft 172 kts 182°
2026-05-04 00:13 26.08926 -80.53382 4869 ft 181 kts 182°
2026-05-04 00:13 26.07637 -80.53238 4581 ft 194 kts 165°
2026-05-04 00:14 26.06550 -80.52309 4283 ft 206 kts 127°
2026-05-04 00:14 26.06149 -80.50784 4024 ft 209 kts 88°
2026-05-04 00:14 26.06406 -80.49244 4022 ft 198 kts 77°
2026-05-04 00:14 26.06671 -80.47769 4022 ft 192 kts 79°
2026-05-04 00:15 26.06937 -80.46325 4015 ft 189 kts 79°
2026-05-04 00:15 26.07169 -80.44915 4008 ft 182 kts 80°
2026-05-04 00:15 26.07385 -80.43547 4006 ft 177 kts 81°
2026-05-04 00:15 26.07668 -80.42249 4003 ft 174 kts 70°
2026-05-04 00:16 26.07826 -80.40931 4007 ft 172 kts 90°
2026-05-04 00:16 26.07834 -80.39596 3963 ft 173 kts 90°
2026-05-04 00:16 26.07840 -80.38237 3804 ft 180 kts 91°
2026-05-04 00:16 26.07763 -80.36825 3590 ft 185 kts 99°
2026-05-04 00:17 26.07561 -80.35402 3377 ft 187 kts 96°
2026-05-04 00:17 26.07733 -80.33968 3165 ft 188 kts 80°
2026-05-04 00:17 26.07789 -80.32524 3022 ft 184 kts 90°
2026-05-04 00:17 26.07795 -80.31139 3017 ft 174 kts 91°
2026-05-04 00:18 26.07737 -80.29842 3010 ft 162 kts 96°
2026-05-04 00:18 26.07335 -80.28736 3007 ft 152 kts 129°
2026-05-04 00:18 26.06698 -80.27856 3005 ft 148 kts 115°
2026-05-04 00:18 26.06644 -80.26735 3002 ft 147 kts 86°
2026-05-04 00:19 26.06651 -80.25564 2821 ft 156 kts 91°
2026-05-04 00:19 26.06640 -80.24359 2560 ft 154 kts 91°
2026-05-04 00:19 26.06635 -80.23180 2219 ft 151 kts 89°
2026-05-04 00:19 26.06630 -80.22025 1880 ft 148 kts 89°
2026-05-04 00:20 26.06621 -80.20885 1531 ft 146 kts 89°
2026-05-04 00:20 26.06604 -80.19812 1139 ft 133 kts 89°
2026-05-04 00:20 26.06604 -80.18856 920 ft 115 kts 88°
2026-05-04 00:20 26.06607 -80.17971 584 ft 107 kts 88°
2026-05-04 00:21 26.06588 -80.17190 251 ft 94 kts 89°
2026-05-04 00:21 26.06606 -80.16530 192 ft 85 kts 89°
2026-05-04 00:21 26.06591 -80.15861 68 ft 87 kts 87°
2026-05-04 00:21 26.06589 -80.15262 19 ft 68 kts 94°
2026-05-04 00:22 26.06584 -80.14816 14 ft 47 kts 91°
2026-05-04 00:22 26.06650 -80.14678 13 ft 14 kts
2026-05-04 00:22 26.06664 -80.14677 13 ft 0 kts 356°
2026-05-04 00:23 26.06683 -80.14700 13 ft 15 kts 290°
2026-05-04 00:23 26.06694 -80.14870 16 ft 21 kts 272°
2026-05-04 00:24 26.06788 -80.14919 17 ft 17 kts